This demonstration page uses our WeatherBlox Daily Observations layout. Learn more.

Left ArrowRight Arrow

Hourly Observations for October 19, 2019

Temp ( °F °C ) Dew Point ( °F °C ) Humidity (%) Winds ( mph kmh ) Pressure ( in mb ) Visibility ( mi km ) Precip ( " mm )
12:53 am 00:53 Clear 65 18.3 48 8.9 54 54 SE 9 15 29.71 1006 10 16 0.00 0.00
1:53 am 01:53 Partly Cloudy 65 18.3 50 10 59 59 SSE 10 17 29.71 1006 10 16 0.00 0.00
2:53 am 02:53 Mostly Cloudy 63 17.2 50 10 63 63 SSE 7 11 29.72 1006 10 16 0.00 0.00
3:53 am 03:53 Cloudy with Light Rain 63 17.2 54 12.2 73 73 SSE 18 30 29.65 1004 9 14 0.03 0.76
4:53 am 04:53 Partly Cloudy 62 16.7 55 12.8 78 78 SSE 8 13 29.68 1005 10 16 0.00 0.00
5:53 am 05:53 Mostly Clear 63 17.2 56 13.3 78 78 S 9 15 29.68 1005 10 16 0.00 0.00
6:53 am 06:53 Partly Cloudy 63 17.2 57 13.9 81 81 SSE 8 13 29.69 1006 10 16 0.00 0.00
7:53 am 07:53 Mostly Sunny 64 17.8 58 14.4 81 81 SSE 7 11 29.70 1006 10 16 0.00 0.00
8:53 am 08:53 Sunny 66 18.9 59 15 78 78 S 9 15 29.70 1006 10 16 0.00 0.00
9:53 am 09:53 Mostly Sunny 71 21.7 61 16.1 71 71 S 6 9 29.72 1006 10 16 0.00 0.00
10:53 am 10:53 Sunny 75 23.9 59 15 58 58 W 7 11 29.73 1007 10 16 0.00 0.00
11:53 am 11:53 Sunny 79 26.1 57 13.9 47 47 WNW 7 11 29.73 1007 10 16 0.00 0.00
12:53 pm 12:53 Sunny 82 27.8 52 11.1 35 35 W 10 17 29.71 1006 10 16 0.00 0.00
1:53 pm 13:53 Sunny 84 28.9 53 11.7 34 34 WNW 7 11 29.69 1006 10 16 0.00 0.00
2:53 pm 14:53 Sunny 84 28.9 52 11.1 33 33 WNW 7 11 29.69 1005 10 16 0.00 0.00
3:53 pm 15:53 Mostly Sunny 85 29.4 54 12.2 35 35 WNW 9 15 29.69 1005 10 16 0.00 0.00
4:53 pm 16:53 Mostly Sunny 84 28.9 56 13.3 38 38 N 13 20 29.69 1005 10 16 0.00 0.00
5:53 pm 17:53 Sunny 82 27.8 55 12.8 40 40 N 10 17 29.70 1006 10 16 0.00 0.00
6:53 pm 18:53 Clear 78 25.6 54 12.2 43 43 N 8 13 29.72 1007 10 16 0.00 0.00
7:53 pm 19:53 Clear 75 23.9 54 12.2 48 48 N 3 6 29.74 1007 10 16 0.00 0.00
8:53 pm 20:53 Clear 72 22.2 55 12.8 55 55 Calm 29.75 1008 10 16 0.00 0.00
9:53 pm 21:53 Clear 71 21.7 54 12.2 55 55 N 3 6 29.77 1008 10 16 0.00 0.00
10:53 pm 22:53 Clear 68 20 55 12.8 63 63 Calm 29.78 1009 10 16 0.00 0.00
11:53 pm 23:53 Clear 67 19.4 55 12.8 66 66 NNW 3 6 29.79 1009 10 16 0.00 0.00

Powered by Vaisala Xweather